| time (UTC) | temp F | wind direction | speed MPH | gust MPH | rain 1hr in | rain 24hr in | rain mn in | humidity % | barometer mb |
| 20260507021532 | 64 | 173 | 4.0 | 10.0 | 0.00 | 0.00 | 0.00 | 49 | 1020.3 |
| 20260507020029 | 65 | 250 | 4.0 | 11.0 | 0.00 | 0.00 | 0.00 | 47 | 1020.3 |
| 20260507014529 | 67 | 225 | 4.0 | 11.0 | 0.00 | 0.00 | 0.00 | 45 | 1020.3 |
| 20260507013030 | 68 | 302 | 4.0 | 12.0 | 0.00 | 0.00 | 0.00 | 44 | 1020.4 |
| 20260507011531 | 69 | 281 | 5.0 | 14.0 | 0.00 | 0.00 | 0.00 | 43 | 1020.4 |
| 20260507004608 | 70 | 290 | 6.0 | 18.0 | 0.00 | 0.00 | 0.00 | 41 | 1020.4 |
| 20260507003032 | 70 | 301 | 8.0 | 23.0 | 0.00 | 0.00 | 0.00 | 42 | 1020.3 |
| 20260507001531 | 70 | 310 | 6.0 | 15.0 | 0.00 | 0.00 | 0.00 | 43 | 1020.2 |
| 20260507000108 | 71 | 303 | 9.0 | 22.0 | 0.00 | 0.00 | 0.00 | 43 | 1020.2 |
| 20260506234528 | 70 | 310 | 8.0 | 25.0 | 0.00 | 0.00 | 0.00 | 44 | 1020.0 |
| 20260506231530 | 67 | 325 | 9.0 | 16.0 | 0.00 | 0.00 | 0.00 | 50 | 1020.2 |
| 20260506230033 | 69 | 309 | 8.0 | 19.0 | 0.00 | 0.00 | 0.00 | 49 | 1020.1 |
| 20260506223026 | 71 | 288 | 8.0 | 19.0 | 0.00 | 0.00 | 0.00 | 44 | 1020.0 |
| 20260506221532 | 72 | 265 | 6.0 | 16.0 | 0.00 | 0.00 | 0.00 | 44 | 1020.0 |
| 20260506220035 | 71 | 279 | 8.0 | 21.0 | 0.00 | 0.00 | 0.00 | 45 | 1020.0 |
| 20260506214532 | 71 | 252 | 6.0 | 20.0 | 0.00 | 0.00 | 0.00 | 45 | 1020.2 |
| 20260506213029 | 72 | 288 | 6.0 | 20.0 | 0.00 | 0.00 | 0.00 | 44 | 1020.2 |
| 20260506211530 | 73 | 283 | 6.0 | 18.0 | 0.00 | 0.00 | 0.00 | 43 | 1020.2 |
| 20260506210033 | 72 | 307 | 5.0 | 16.0 | 0.00 | 0.00 | 0.00 | 42 | 1020.3 |
| 20260506204531 | 72 | 257 | 8.0 | 17.0 | 0.00 | 0.00 | 0.00 | 43 | 1020.3 |
| 20260506201540 | 72 | 269 | 5.0 | 14.0 | 0.00 | 0.00 | 0.00 | 47 | 1020.5 |
| 20260506194541 | 69 | 312 | 10.0 | 19.0 | 0.00 | 0.00 | 0.00 | 51 | 1020.3 |
| 20260506191604 | 67 | 299 | 9.0 | 24.0 | 0.00 | 0.00 | 0.00 | 56 | 1020.5 |
| 20260506190034 | 66 | 281 | 10.0 | 20.0 | 0.00 | 0.00 | 0.00 | 58 | 1020.6 |
| 20260506181530 | 64 | 273 | 11.0 | 23.0 | 0.00 | 0.00 | 0.00 | 62 | 1020.5 |
| 20260506180028 | 63 | 255 | 9.0 | 24.0 | 0.00 | 0.00 | 0.00 | 64 | 1020.6 |
| 20260506174529 | 63 | 244 | 10.0 | 23.0 | 0.00 | 0.00 | 0.00 | 65 | 1020.7 |
| 20260506173029 | 63 | 279 | 11.0 | 24.0 | 0.00 | 0.00 | 0.00 | 65 | 1020.4 |
| 20260506171530 | 64 | 276 | 10.0 | 21.0 | 0.00 | 0.00 | 0.00 | 64 | 1020.3 |
| 20260506170031 | 63 | 299 | 4.0 | 14.0 | 0.00 | 0.00 | 0.00 | 66 | 1020.3 |
| 20260506164530 | 63 | 19 | 7.0 | 17.0 | 0.00 | 0.00 | 0.00 | 65 | 1020.3 |
| 20260506163030 | 62 | 320 | 3.0 | 18.0 | 0.00 | 0.00 | 0.00 | 65 | 1020.3 |
| 20260506160031 | 61 | 293 | 8.0 | 22.0 | 0.00 | 0.00 | 0.00 | 67 | 1020.6 |
| 20260506154529 | 60 | 294 | 8.0 | 19.0 | 0.00 | 0.00 | 0.00 | 69 | 1020.3 |
| 20260506153029 | 60 | 275 | 9.0 | 21.0 | 0.00 | 0.00 | 0.00 | 69 | 1020.5 |
| 20260506150028 | 59 | 150 | 1.0 | 5.0 | 0.00 | 0.00 | 0.00 | 71 | 1020.3 |
| 20260506144530 | 58 | 253 | 3.0 | 10.0 | 0.00 | 0.00 | 0.00 | 74 | 1020.4 |
| 20260506143030 | 56 | 256 | 3.0 | 11.0 | 0.00 | 0.00 | 0.00 | 75 | 1020.4 |
| 20260506141531 | 56 | 253 | 5.0 | 10.0 | 0.00 | 0.00 | 0.00 | 76 | 1020.3 |
| 20260506140033 | 55 | 294 | 3.0 | 11.0 | 0.00 | 0.00 | 0.00 | 77 | 1020.2 |
| 20260506133030 | 53 | 104 | 2.0 | 9.0 | 0.00 | 0.00 | 0.00 | 80 | 1019.9 |
| 20260506131531 | 53 | 102 | 2.0 | 7.0 | 0.00 | 0.00 | 0.00 | 81 | 1019.7 |
| 20260506130029 | 52 | 232 | 3.0 | 9.0 | 0.00 | 0.00 | 0.00 | 82 | 1019.6 |
| 20260506124533 | 52 | 161 | 3.0 | 8.0 | 0.00 | 0.00 | 0.00 | 80 | 1019.6 |
| 20260506123031 | 53 | 202 | 4.0 | 10.0 | 0.00 | 0.00 | 0.00 | 79 | 1019.4 |
| 20260506121608 | 53 | 192 | 3.0 | 12.0 | 0.00 | 0.00 | 0.00 | 78 | 1019.3 |
| 20260506120030 | 54 | 230 | 3.0 | 9.0 | 0.00 | 0.00 | 0.00 | 77 | 1019.3 |
| 20260506114645 | 55 | 234 | 4.0 | 13.0 | 0.00 | 0.00 | 0.00 | 75 | 1019.0 |
| 20260506113029 | 54 | 246 | 9.0 | 21.0 | 0.00 | 0.00 | 0.00 | 77 | 1018.8 |
| 20260506111528 | 53 | 236 | 4.0 | 13.0 | 0.00 | 0.00 | 0.00 | 79 | 1018.8 |
| 20260506110028 | 55 | 207 | 2.0 | 11.0 | 0.00 | 0.00 | 0.00 | 77 | 1018.7 |
| 20260506104530 | 55 | 251 | 6.0 | 16.0 | 0.00 | 0.00 | 0.00 | 77 | 1018.5 |
| 20260506103108 | 55 | 239 | 9.0 | 21.0 | 0.00 | 0.00 | 0.00 | 77 | 1018.3 |
| 20260506101531 | 54 | 236 | 8.0 | 19.0 | 0.00 | 0.00 | 0.00 | 79 | 1018.3 |
| 20260506100051 | 53 | 254 | 8.0 | 14.0 | 0.00 | 0.00 | 0.00 | 83 | 1018.3 |
| 20260506094539 | 52 | 280 | 5.0 | 9.0 | 0.00 | 0.00 | 0.00 | 86 | 1018.3 |
| 20260506093030 | 50 | 269 | 5.0 | 11.0 | 0.00 | 0.00 | 0.00 | 88 | 1018.1 |
| 20260506091602 | 51 | 269 | 4.0 | 6.0 | 0.00 | 0.00 | 0.00 | 87 | 1018.2 |
| 20260506090107 | 51 | 286 | 2.0 | 4.0 | 0.00 | 0.00 | 0.00 | 87 | 1018.2 |
| 20260506083104 | 52 | 258 | 1.0 | 3.0 | 0.00 | 0.00 | 0.00 | 86 | 1017.9 |
| 20260506081531 | 52 | 298 | 2.0 | 6.0 | 0.00 | 0.00 | 0.00 | 88 | 1017.7 |
| 20260506073032 | 51 | 274 | 1.0 | 6.0 | 0.00 | 0.00 | 0.00 | 88 | 1017.5 |
| 20260506071530 | 51 | 279 | 3.0 | 6.0 | 0.00 | 0.00 | 0.00 | 87 | 1017.5 |
| 20260506061527 | 55 | 135 | 1.0 | 6.0 | 0.00 | 0.00 | 0.00 | 80 | 1017.2 |
| 20260506060134 | 55 | 265 | 4.0 | 9.0 | 0.00 | 0.00 | 0.00 | 80 | 1017.1 |
| 20260506044533 | 56 | 289 | 7.0 | 12.0 | 0.00 | 0.00 | 0.00 | 78 | 1016.4 |
| 20260506043029 | 56 | 286 | 8.0 | 17.0 | 0.00 | 0.00 | 0.00 | 77 | 1016.2 |
| 20260506041530 | 57 | 286 | 6.0 | 13.0 | 0.00 | 0.00 | 0.00 | 76 | 1016.2 |
| 20260506040035 | 57 | 291 | 5.0 | 14.0 | 0.00 | 0.00 | 0.00 | 75 | 1016.0 |
| 20260506034533 | 57 | 290 | 8.0 | 17.0 | 0.00 | 0.00 | 0.00 | 74 | 1015.7 |
| 20260506033030 | 58 | 286 | 4.0 | 15.0 | 0.00 | 0.00 | 0.00 | 72 | 1015.6 |
| 20260506030144 | 60 | 251 | 4.0 | 9.0 | 0.00 | 0.00 | 0.00 | 69 | 1015.3 |
| 20260506024532 | 61 | 271 | 3.0 | 7.0 | 0.00 | 0.00 | 0.00 | 68 | 1015.2 |